This demonstration page uses our WeatherBlox Daily Observations layout. Learn more.

Left ArrowRight Arrow

34.74481, -87.66753

Hourly Observations for February 5, 2021

Temp ( °F °C ) Dew Point ( °F °C ) Humidity (%) Winds ( mph kmh ) Pressure ( in mb ) Visibility ( mi km ) Precip ( " mm )
12:53 am 00:53 Mostly Clear 44 6.7 36 2.2 73 73 NW 10 17 29.87 1011 10 16 0.00 0.00
1:53 am 01:53 Mostly Cloudy 42 5.6 34 1.1 73 73 NW 6 9 29.88 1012 10 16 0.00 0.00
2:17 am 02:17 Partly Cloudy 41 5 33 0.6 73 73 WNW 10 17 29.92 1013 10 16 0.00 0.00
2:53 am 02:53 Mostly Clear 39 3.9 31 -0.6 73 73 NW 10 17 29.91 1013 10 16 0.00 0.00
3:53 am 03:53 Clear 37 2.8 28 -2.2 70 70 NW 8 13 29.92 1013 10 16 0.00 0.00
4:53 am 04:53 Clear 36 2.2 28 -2.2 73 73 NW 6 9 29.94 1014 10 16 0.00 0.00
5:53 am 05:53 Clear 34 1.1 27 -2.8 76 76 NW 6 9 29.96 1015 10 16 0.00 0.00
6:53 am 06:53 Sunny 34 1.1 26 -3.3 73 73 NW 3 6 29.96 1015 10 16 0.00 0.00
7:53 am 07:53 Sunny 35 1.7 27 -2.8 72 72 WNW 5 7 29.98 1015 10 16 0.00 0.00
8:53 am 08:53 Sunny 37 2.8 25 -3.9 62 62 W 6 9 30.00 1016 10 16 0.00 0.00
9:53 am 09:53 Sunny 40 4.4 25 -3.9 55 55 VRB 3 6 30.04 1017 10 16 0.00 0.00
10:53 am 10:53 Sunny 44 6.7 26 -3.3 49 49 VRB 3 6 30.03 1017 10 16 0.00 0.00
11:53 am 11:53 Sunny 45 7.2 25 -3.9 46 46 VRB 3 6 30.02 1017 10 16 0.00 0.00
12:53 pm 12:53 Sunny 47 8.3 24 -4.4 41 41 Calm 30.01 1016 10 16 0.00 0.00
1:53 pm 13:53 Sunny 50 10 25 -3.9 38 38 Calm 29.98 1015 10 16 0.00 0.00
2:53 pm 14:53 Sunny 50 10 25 -3.9 38 38 W 7 11 29.96 1015 10 16 0.00 0.00
3:53 pm 15:53 Sunny 50 10 23 -5 35 35 NNW 3 6 29.96 1015 10 16 0.00 0.00
4:53 pm 16:53 Sunny 49 9.4 23 -5 36 36 SW 3 6 29.96 1015 10 16 0.00 0.00
5:53 pm 17:53 Clear 45 7.2 26 -3.3 48 48 Calm 29.96 1015 10 16 0.00 0.00
6:53 pm 18:53 Clear 40 4.4 26 -3.3 58 58 Calm 29.96 1015 10 16 0.00 0.00
7:53 pm 19:53 Clear 39 3.9 28 -2.2 65 65 Calm 29.98 1015 10 16 0.00 0.00
8:53 pm 20:53 Clear 36 2.2 29 -1.7 76 76 Calm 29.99 1016 10 16 0.00 0.00
9:53 pm 21:53 Clear 34 1.1 27 -2.8 76 76 Calm 30.01 1016 10 16 0.00 0.00
10:53 pm 22:53 Clear 34 1.1 26 -3.3 73 73 Calm 30.01 1016 10 16 0.00 0.00
11:53 pm 23:53 Clear 33 0.6 26 -3.3 75 75 Calm 30.01 1016 10 16 0.00 0.00

Powered by AerisWeather